[[{"header":{"parameterUnit":"m.s-1","parameterCategory":1,"la1":30.2991,"la2":30.254,"lo1":-89.0895,"lo2":-89.0444,"dy":0.0017,"dx":0.0017,"nx":28,"ny":28,"refTime":"2023-04-30T15:00:00:Z","depth":0,"parameterNumber":2,"parameterNumberName":"U-component_of_WINDS"},"data":[0,0,0,0,0,0,0,0,0,0,0,0,0,0,0,0,0,0,0,0,0,0,0,0,0,0,0,0,0,0,0,0,0,0,0,0,0,0,0,0,0,0,0,0,0,0,0,0,0,0,0,0,0,0,0,0,0,0,3.8863,3.8864,0,3.896,3.8961,3.8962,3.8876,3.8873,3.8869,3.8866,3.8969,3.8974,3.898,0,0,0,0,0,0,0,0,0,0,0,0,0,3.8607,3.8612,3.8862,3.8864,3.8865,3.8959,3.8961,3.8962,3.8877,3.8873,3.8868,3.8864,3.8967,3.8974,3.8981,0,0,0,0,0,0,0,0,0,0,0,0,0,3.8712,3.8613,3.8862,3.8834,3.8832,3.8959,3.8961,3.8962,3.8878,3.8873,3.8867,3.8862,3.8964,3.8973,3.8982,3.9143,0,0,3.9009,3.9013,0,0,0,0,0,0,0,0,3.8706,3.8722,3.8837,3.8836,3.8834,3.89,3.8908,3.9023,3.8879,3.8861,3.8866,3.886,3.895,3.896,3.899,3.9148,3.9152,3.901,3.9016,3.902,3.9022,0,0,0,0,0,0,0,3.8699,3.8717,3.8901,3.8839,3.8837,3.8817,3.8826,3.8929,3.8934,3.8862,3.8856,3.8868,3.8949,3.8982,3.8992,3.9154,3.901,3.9018,3.9024,3.9027,3.9449,3.9455,0,0,0,0,0,0,3.8694,3.8712,3.8898,3.8904,3.8756,3.8826,3.8836,3.8885,3.8933,3.8935,3.8873,3.8864,3.8969,3.8981,3.8995,3.9187,3.9019,3.9028,3.9033,3.9443,3.945,3.9457,0,0,0,0,0,0,3.8689,3.8712,3.8894,3.8806,3.8828,3.8836,3.8891,3.8889,3.8922,3.8941,3.8941,3.8905,3.8965,3.8982,3.9107,3.9189,3.9032,3.904,3.9437,3.9446,3.9454,3.9572,0,0,0,0,0,0,3.8682,3.871,3.8771,3.8808,3.8833,3.9003,3.8896,3.8895,3.8937,3.8927,3.8972,3.8974,3.8962,3.9094,3.9116,3.9199,3.9047,3.9429,3.9441,3.9451,3.9561,3.9584,3.9604,0,0,0,0,0,3.8673,3.8801,3.8774,3.8797,3.8908,3.9008,3.9022,3.9006,3.8944,3.9006,3.9018,3.8972,3.9177,3.9107,3.9131,3.9218,3.9424,3.9437,3.945,3.9552,3.958,3.9603,0,0,0,0,0,0,3.8774,3.8805,3.8776,3.8919,3.8962,3.8994,3.907,3.9036,3.9097,3.9085,3.9062,3.9073,3.9204,3.9224,3.9146,3.9377,3.9291,3.9309,3.936,3.9386,3.9407,3.94,3.9055,0,0,0,0,0,3.8813,3.889,3.8914,3.9038,3.9061,3.9062,3.9105,3.9089,3.9132,3.915,3.9171,3.9216,3.929,3.9339,3.9408,3.9564,3.9572,3.9636,3.9657,3.9674,3.9691,3.9775,3.9803,3.95,3.95,3.9499,0,0,3.8894,3.8921,3.8971,3.9059,3.909,3.9172,3.9078,3.9168,3.9229,3.9164,3.9282,3.93,3.9348,3.9488,3.9551,3.9509,3.9776,3.9691,3.9705,3.9712,3.9791,3.982,3.9845,3.9509,3.9507,3.9506,0,0,3.9083,3.9111,3.9218,3.9251,3.9298,3.9298,3.9324,3.9362,3.9371,3.9489,3.9442,3.9514,3.9643,3.9679,3.9715,3.9919,3.988,3.9942,4.0054,4.0136,4.016,4.0181,4.0254,4.0281,3.9959,3.9959,3.9959,0,3.9178,3.9299,3.9277,3.9371,3.9412,3.9356,3.9464,3.9497,3.9566,3.9596,3.9546,3.9707,3.9735,3.9884,3.9934,3.9964,3.9994,3.9937,4.0158,4.0179,4.0198,4.0268,4.0296,3.9966,3.9965,3.9965,3.9964,0,3.9413,3.9498,3.9578,3.9645,3.9694,3.9795,3.979,3.9843,3.9823,3.9829,3.9951,3.9983,4.0058,4.0093,4.0074,4.0239,4.0211,4.0161,4.0073,4.0235,4.03,4.0326,3.9977,3.9974,3.9972,3.997,0,0,3.9668,3.9722,3.9752,3.9782,3.9831,3.9896,3.9995,4.0068,4.0114,4.0163,4.0246,4.0356,4.031,4.035,4.0335,4.0408,4.0568,4.0348,4.0349,4.0388,4.0753,4.0791,4.0822,4.0542,4.0547,4.0551,4.0749,0,3.986,4.003,4.0014,4.0177,4.0255,4.0203,4.029,4.033,4.0338,4.0406,4.0416,4.0495,4.0427,4.0451,4.0521,4.0534,4.0641,4.0519,4.062,4.0624,4.0609,4.0856,4.0896,4.108,4.0774,4.0779,4.0782,0,4.0105,4.0163,4.0333,4.037,4.0402,4.048,4.0546,4.0611,4.0656,4.0657,4.0703,4.0676,4.0777,4.0687,4.0826,4.0744,4.0784,4.0797,4.0804,4.0813,4.0712,4.0871,4.1139,4.1167,4.0821,4.0818,4.0815,0,4.0275,4.0395,4.0512,4.0539,4.0585,4.0641,4.0664,4.0703,4.0748,4.0806,4.0835,4.0905,4.0943,4.0998,4.099,4.0926,4.1132,4.1042,4.1137,4.1137,4.1182,4.118,4.1461,4.1209,4.1209,4.1208,4.1207,0,4.049,4.0596,4.0588,4.0661,4.0778,4.076,4.0877,4.0893,4.0929,4.1004,4.0964,4.1036,4.1022,4.1094,4.1089,4.1205,4.1223,4.1227,4.1225,4.1231,4.123,4.1257,4.1244,4.1215,4.1214,4.1212,4.1211,0,4.0698,4.0698,4.0822,4.0856,4.0867,4.0953,4.0982,4.1051,4.1056,4.1152,4.1173,4.1182,4.1265,4.1263,4.1357,4.1354,4.1497,4.148,4.1481,4.1478,4.1573,4.1564,4.188,4.1921,4.1643,4.1646,4.1648,0,4.0836,4.0916,4.0959,4.1006,4.1031,4.1108,4.1153,4.1139,4.1188,4.1246,4.1308,4.1386,4.1448,4.1583,4.1599,4.1671,4.1655,4.1761,4.1666,4.167,4.1657,4.1652,4.166,4.178,4.1783,4.1785,4.1788,0,4.108,4.1075,4.1142,4.1209,4.1264,4.1317,4.1365,4.1406,4.1397,4.1455,4.1538,4.1586,4.1682,4.1761,4.1831,4.1855,4.1821,4.1818,4.1843,4.185,4.1848,4.1851,4.1532,4.181,4.1808,4.1806,4.1805,4.1804,4.1257,4.1326,4.1367,4.1443,4.1477,4.1523,4.1589,4.1603,4.1672,4.1748,4.1736,4.183,4.1874,4.1963,4.1994,4.2067,4.203,4.2067,4.2077,4.2086,4.2097,4.1837,4.208,4.2079,4.2079,4.2078,4.2078,0,4.1498,4.1522,4.1592,4.166,4.1721,4.1682,4.1734,4.1787,4.1869,4.1913,4.1975,4.2071,4.2148,4.217,4.2244,4.2299,4.2285,4.2319,4.2315,4.2321,4.2126,4.2096,4.2329,4.2329,4.2329,4.2329,4.2329,4.2329,4.1631,4.1746,4.1747,4.1879,4.1903,4.1993,4.2026,4.2069,4.2103,4.2212,4.2276,4.2289,4.2324,4.2401,4.247,4.2474,4.2504,4.2544,4.2542,4.236,4.2335,4.231,4.2282,4.2551,4.2551,4.2731,4.2733,4.2734]},{"header":{"parameterUnit":"m.s-1","parameterCategory":1,"la1":30.2991,"la2":30.254,"lo1":-89.0895,"lo2":-89.0444,"dy":0.0017,"dx":0.0017,"nx":28,"ny":28,"refTime":"2023-04-30T15:00:00:Z","depth":0,"parameterNumber":3,"parameterNumberName":"V-component_of_WINDS"},"data":[0,0,0,0,0,0,0,0,0,0,0,0,0,0,0,0,0,0,0,0,0,0,0,0,0,0,0,0,0,0,0,0,0,0,0,0,0,0,0,0,0,0,0,0,0,0,0,0,0,0,0,0,0,0,0,0,0,0,1.3141,1.3141,0,1.3176,1.3176,1.3176,1.3158,1.3157,1.3156,1.3155,1.3189,1.3191,1.3192,0,0,0,0,0,0,0,0,0,0,0,0,0,1.3057,1.3059,1.3141,1.3141,1.3142,1.3176,1.3176,1.3176,1.3158,1.3157,1.3155,1.3154,1.3188,1.319,1.3193,0,0,0,0,0,0,0,0,0,0,0,0,0,1.3093,1.3059,1.3141,1.3137,1.3137,1.3175,1.3176,1.3177,1.3158,1.3157,1.3155,1.3154,1.3188,1.319,1.3193,1.3238,0,0,1.3201,1.3202,0,0,0,0,0,0,0,0,1.3091,1.3096,1.3137,1.3137,1.3137,1.3161,1.3159,1.3197,1.3158,1.315,1.3155,1.3153,1.3181,1.3184,1.3193,1.3239,1.3241,1.3201,1.3203,1.3204,1.3205,0,0,0,0,0,0,0,1.3088,1.3094,1.3155,1.3137,1.3137,1.3132,1.3136,1.3166,1.3173,1.315,1.3149,1.3154,1.318,1.3191,1.3194,1.3241,1.3201,1.3204,1.3205,1.3206,1.3325,1.3326,0,0,0,0,0,0,1.3086,1.3092,1.3153,1.3156,1.311,1.3135,1.3139,1.3155,1.3172,1.3174,1.3155,1.3153,1.3187,1.3191,1.3195,1.3249,1.3204,1.3206,1.3208,1.3323,1.3325,1.3327,0,0,0,0,0,0,1.3084,1.3092,1.3152,1.3124,1.3131,1.3138,1.3156,1.3156,1.3166,1.3176,1.3176,1.3164,1.3186,1.3191,1.3227,1.3249,1.3208,1.321,1.3321,1.3324,1.3326,1.3356,0,0,0,0,0,0,1.3082,1.3091,1.3109,1.3124,1.3132,1.3184,1.3157,1.3158,1.3171,1.3169,1.3185,1.3186,1.3185,1.3223,1.323,1.3252,1.3212,1.332,1.3323,1.3325,1.3353,1.3359,1.3364,0,0,0,0,0,1.3079,1.3116,1.311,1.3117,1.3155,1.3186,1.319,1.3189,1.3173,1.3191,1.3196,1.3186,1.3246,1.3227,1.3234,1.3258,1.3318,1.3322,1.3325,1.335,1.3358,1.3364,0,0,0,0,0,0,1.3102,1.3118,1.3111,1.3154,1.3169,1.3182,1.3204,1.3197,1.3216,1.3213,1.321,1.3214,1.3251,1.3258,1.3237,1.3302,1.3279,1.3284,1.3296,1.3303,1.3309,1.3306,1.3214,0,0,0,0,0,1.3113,1.3137,1.3149,1.3185,1.3193,1.3197,1.3211,1.3209,1.3223,1.3229,1.3238,1.3252,1.3274,1.3289,1.331,1.3354,1.3357,1.3373,1.3379,1.3383,1.3388,1.3411,1.3419,1.3338,1.3338,1.3338,0,0,1.3134,1.3145,1.316,1.319,1.3201,1.3226,1.3203,1.323,1.3248,1.3233,1.3268,1.3275,1.329,1.333,1.3348,1.3337,1.3411,1.3388,1.3391,1.3394,1.3416,1.3423,1.343,1.3341,1.334,1.334,0,0,1.3185,1.3196,1.3227,1.3239,1.3256,1.3259,1.3267,1.3282,1.3285,1.332,1.3309,1.3331,1.3369,1.3381,1.3392,1.3447,1.3438,1.3454,1.3483,1.3506,1.3512,1.3517,1.3537,1.3544,1.3458,1.3458,1.3458,0,1.3209,1.3246,1.3244,1.3273,1.3286,1.3274,1.3305,1.3317,1.334,1.3349,1.3336,1.3384,1.3394,1.3436,1.3449,1.3459,1.3467,1.3452,1.3511,1.3517,1.3522,1.3541,1.3548,1.346,1.346,1.346,1.3459,0,1.3275,1.3301,1.3324,1.3347,1.3363,1.3393,1.3395,1.3411,1.3407,1.3411,1.3446,1.3457,1.348,1.349,1.3486,1.3532,1.3524,1.3512,1.3489,1.3532,1.3549,1.3556,1.3463,1.3462,1.3461,1.3461,0,0,1.3342,1.3364,1.3372,1.3383,1.34,1.342,1.3449,1.3472,1.3486,1.3502,1.3526,1.3558,1.3546,1.3559,1.3556,1.3576,1.3619,1.3561,1.3561,1.3571,1.3669,1.3679,1.3687,1.3613,1.3614,1.3615,1.3668,0,1.3395,1.3446,1.3445,1.3492,1.3516,1.3505,1.353,1.3543,1.3547,1.3568,1.3572,1.3595,1.3578,1.3585,1.3604,1.361,1.3639,1.3606,1.3635,1.3636,1.3631,1.3697,1.3707,1.3757,1.3675,1.3676,1.3677,0,1.3463,1.3482,1.3532,1.3546,1.3556,1.3579,1.3599,1.3619,1.3634,1.3635,1.3649,1.3643,1.3672,1.3648,1.3687,1.3665,1.3677,1.3681,1.3683,1.3686,1.3659,1.3701,1.3772,1.378,1.3688,1.3687,1.3686,0,1.3507,1.3545,1.358,1.3589,1.3606,1.3622,1.363,1.3643,1.3657,1.3675,1.3684,1.3704,1.3716,1.3731,1.3731,1.3714,1.3771,1.3747,1.3773,1.3773,1.3785,1.3785,1.3859,1.3792,1.3792,1.3792,1.3792,0,1.3566,1.3597,1.36,1.3621,1.3655,1.3653,1.3687,1.3693,1.3705,1.3727,1.3718,1.3738,1.3737,1.3757,1.3757,1.379,1.3795,1.3796,1.3796,1.3797,1.3797,1.3805,1.3802,1.3794,1.3794,1.3793,1.3793,0,1.3621,1.3624,1.3662,1.3675,1.3679,1.3704,1.3715,1.3735,1.3738,1.3766,1.3772,1.3777,1.3801,1.3802,1.3829,1.3829,1.3869,1.3864,1.3864,1.3863,1.3889,1.3886,1.3971,1.3982,1.3908,1.3909,1.3909,0,1.3659,1.3683,1.3699,1.3713,1.3722,1.3745,1.3759,1.3758,1.3772,1.3791,1.3808,1.3831,1.385,1.3888,1.3894,1.3915,1.3911,1.3939,1.3914,1.3914,1.3911,1.391,1.3912,1.3944,1.3945,1.3946,1.3946,0,1.3725,1.3726,1.3746,1.3768,1.3785,1.3801,1.3817,1.3829,1.3829,1.3846,1.3871,1.3885,1.3913,1.3936,1.3956,1.3963,1.3955,1.3954,1.3961,1.3963,1.3962,1.3963,1.3878,1.3952,1.3952,1.3951,1.3951,1.3951,1.3773,1.3793,1.3808,1.3831,1.3843,1.3857,1.3877,1.3882,1.3903,1.3926,1.3924,1.3951,1.3964,1.399,1.3999,1.402,1.401,1.4021,1.4023,1.4026,1.4028,1.3958,1.4024,1.4024,1.4023,1.4023,1.4023,0,1.3839,1.3847,1.3869,1.3891,1.3909,1.39,1.3917,1.3932,1.3956,1.397,1.3988,1.4016,1.4038,1.4045,1.4067,1.4082,1.4078,1.4087,1.4086,1.4088,1.4036,1.4028,1.409,1.409,1.409,1.409,1.409,1.409,1.3875,1.3909,1.3911,1.3951,1.3959,1.3986,1.3996,1.4009,1.402,1.4052,1.407,1.4075,1.4086,1.4108,1.4127,1.4129,1.4137,1.4147,1.4147,1.4099,1.4092,1.4085,1.4078,1.4149,1.4149,1.4198,1.4198,1.4199]}]]